Showing default

HONGYUN 1, 43871

Orbit data source: Space-Track

HONGYUN 1, 43871 is a payload satellite owned by CASIC (CN) in SSO that was launched on Fri, 21 Dec 2018 UTC via a CHANG ZHENG 11 launch vehicle from the Jiuquan Satellite Launch Center, China (JSC). Payload-class satellites include a variety of spacecraft equipped with specific instruments for various scientific and technological missions. These include communications satellites like Starlink; space stations such as the ISS; scientific satellites like the Hubble; Earth observation satellites from companies like Planet Labs, Umbra, and HawkEye 360; GPS; miniature CubeSats for education and research; and military/defense satellites.

Loading next visibility...
Identifier
43871, 2018-108A
Orbit
SSO
Country
Flag of CNCN / PRC
Related business
Manufacturer
CASIC
Mission
Operational Civil Communications
Bus & Motor
HONGYUN, Unknown motor
Mass
~250 kg wet, ~250 kg dry
Launch date (UTC)
2018-12-21 (7 years ago)
Launch vehicle
CHANG ZHENG 11
Launch site
Jiuquan Satellite Launch Center, China (JSC)
Object type
Payload
Rocket body
Debris
Shape & HBR
Box + 2 Pan, 2.0 m
Radar Cross Section
1.356 m², Large (>1 m²)

Expand to show TLE details & history
Last TLE update: 12 hours ago

TLE from 12 hours ago
0 HONGYUN 1
1 43871U 18108A   25258.31545565 -.00000010  00000-0  53040-4 0  9995
2 43871  99.7929 279.8715 0011257 344.8736  15.2060 13.50750575331975
Epoch: 2025-09-15T07:34Z
TLE epoch observation values (Epoch: 2025-09-15T07:34:15.368Z)
Latitude
-0.00004°
Longitude
171.7856°
Altitude
1,064.191 km
Speed
7.324 km/s
True Right ascension
18h 39m 29s
True Declination
0° 00' 00"
Sunlit
Object was in daylight at epoch
Visualization orbit readout
Latitude
Unknown
Longitude
Unknown
Altitude
Unknown
Speed
Unknown
Apparent Right ascension
Unknown
Apparent Declination
Unknown
Sunlit
N/A
Visualization observer readout
Local Sidereal Time
12:18:27
Azimuth
Unknown
Elevation
Unknown
Doppler factor
Unknown
Orbital elements
Apogee altitude
1,075.184 km
Perigee altitude
1,058.423 km
Semi-major axis
7,444.94 km
Eccentricity
0.00113
Inclination
99.7929°
RAAN
279.8715°
Arg. of periapsis
344.8736°
True anomaly
15.23988°
Mean anomaly
15.206°
Eccentric anomaly
15.22294°
Mean motion
3.37871 °/min
Orbital period
106.55 mins
BSTAR
0.00005304
Loading maneuver chart data...
Computing Atmospheric mass density...
Loading historical data...
Loading historical data...
Loading historical data...
Loading historical data...
Loading historical data...
Loading historical data...
Loading historical data...
Other satellites on launch #108 in the year 2018 (2018-12-21 UTC)

Documentation

Showing up to 5 results
|